Location: Camaret
(48.2753°N, 4.5961°W)
Time: 04:28:34
(UTC+00:00)

Cosmos 1656 - Pass Details

Date: 29 October 2020
Orbit: 797 x 851 km, 71.1° (Epoch: 01 December)

Event Time Altitude Azimuth Distance (km) Brightness Sun altitude
Rises 18:15:03 0° 199° (SSW) 3,337 7.2 -12.4°
Reaches altitude 10° 18:17:27 10° 198° (SSW) 2,417 6.4 -12.8°
Maximum altitude 18:22:59 74° 115° (ESE) 869 3.6 -13.7°
Drops below altitude 10° 18:28:38 10° 31° (NNE) 2,469 5.8 -14.6°
Enters shadow 18:30:29 - 30° (NNE) 3,175 6.4 -14.9°
